sat.trackr.live / text

‹ back to catalog

STARLINK-4081

NORAD 52660 · 2022-053E

PAYLOAD ACTIVE UNKNOWN

§ Identity

Operator
Country
US
Launch date
2022-05-18
Launch site
AFETR
Launch vehicle
Mass (kg)
RCS (m²)

Purposes: comms

External: N2YO · Heavens-Above · Gunter

§ Orbital elements

Epoch: 2026-05-25T01:29:48.597792Z

Period
95.44 min
Inclination
53.2147°
Eccentricity
0.0000942
Mean motion
15.08822271 rev/d
Perigee alt
539.1 km
Apogee alt
540.4 km
Semi-major
6,917.9 km
B*
-6.2626e-5
RAAN
171.2696°
Arg perigee
79.4643°
Mean anomaly
280.6455°
Rev number
22,264

§ Raw data

STARLINK-40811 52660U 22053E   26145.06236803 -.00001284  00000+0 -62626-4 0  99992 52660  53.2147 171.2696 0000942  79.4643 280.6455 15.08822271222645

JSON: /api/v1/satellites/52660 · /tle

For live sub-satellite position, see the globe view (requires WebGL).

§ Visibility from observer

Set your observer location to see the next 7 days of passes ≥ 10°. The values pass through the URL so the page stays shareable.

No JS? Fill the form by hand. The geolocation button needs JavaScript.